Location: D�derode
(51.8092°N, 10.1065°E)
Time: 06:15:45
(UTC+00:00)

Cosmos 1939 Rocket - Pass Details

Date: 01 December 2020
Orbit: 532 x 584 km, 97.4° (Epoch: 23 January)

Event Time Altitude Azimuth Distance (km) Brightness Sun altitude
Rises 17:31:38 0° 175° (S) 2,678 6.4 -20.5°
Reaches altitude 10° 17:33:45 10° 179° (S) 1,797 5.5 -20.8°
Maximum altitude 17:37:35 58° 259° (W) 643 3.4 -21.4°
Drops below altitude 10° 17:41:30 10° 340° (NNW) 1,839 5.6 -22.0°
Sets 17:43:42 0° 344° (NNW) 2,747 6.5 -22.4°
